カタログに戻る

PEGASUS R/B

運用中LEO
NORAD 25506·ROCKET BODY·🇺🇸 United States

打ち上げ Oct 23, 1998 から Cape Canaveral Space Force Station

Loading…

次のパス (今後24時間)

TLE

最新Source: Space-Track

元期: Sep 14, 2026, 10:14 UTC

1 25506U 98060B   26257.42706134  .00000359  00000-0  46263-4 0  9992
2 25506  24.9975  42.9846 0022338 319.6722  67.6891 14.48080281475208

AllMySatでPEGASUS R/Bをリアルタイム追跡

Download on the App Store